Time,TemperatureF,DewpointF,PressureIn,WindDirection,WindDirectionDegrees,WindSpeedMPH,WindSpeedGustMPH,Humidity,HourlyPrecipIn,Conditions,Clouds,dailyrainin,SolarRadiationWatts/m^2,SoftwareType,DateUTC
2013-09-23 00:01:00,57.7,56.3,29.91,North,11,0.0,0.0,95,0.00,,,0.00,0.00,VWS V14.01,2013-09-23 04:01:00,
2013-09-23 00:06:00,57.6,56.2,29.91,North,11,0.0,0.0,95,0.00,,,0.00,0.00,VWS V14.01,2013-09-23 04:06:00,
2013-09-23 00:11:00,57.5,56.1,29.92,North,11,0.0,0.0,95,0.00,,,0.00,0.00,VWS V14.01,2013-09-23 04:11:00,
2013-09-23 00:16:00,57.3,55.9,29.92,North,11,0.0,0.0,95,0.00,,,0.00,0.00,VWS V14.01,2013-09-23 04:16:00,
2013-09-23 00:21:00,57.2,55.8,29.92,North,11,0.0,0.0,95,0.00,,,0.00,0.00,VWS V14.01,2013-09-23 04:21:00,
2013-09-23 00:26:00,57.2,55.8,29.92,North,11,0.0,0.0,95,0.00,,,0.00,0.00,VWS V14.01,2013-09-23 04:26:00,
2013-09-23 00:31:00,57.1,55.7,29.92,North,11,0.0,0.0,95,0.00,,,0.00,0.00,VWS V14.01,2013-09-23 04:31:00,
2013-09-23 00:36:00,57.0,55.6,29.92,North,11,0.0,0.0,95,0.00,,,0.00,0.00,VWS V14.01,2013-09-23 04:36:00,
2013-09-23 00:41:00,56.9,55.5,29.92,North,11,0.0,0.0,95,0.00,,,0.00,0.00,VWS V14.01,2013-09-23 04:41:00,
2013-09-23 00:46:00,56.8,55.4,29.93,North,11,0.0,0.0,95,0.00,,,0.00,0.00,VWS V14.01,2013-09-23 04:46:00,
2013-09-23 00:51:00,56.7,55.3,29.93,North,11,0.0,0.0,95,0.00,,,0.00,0.00,VWS V14.01,2013-09-23 04:51:00,
2013-09-23 00:56:00,56.6,55.5,29.93,North,11,0.0,0.0,96,0.00,,,0.00,0.00,VWS V14.01,2013-09-23 04:56:00,
2013-09-23 01:01:00,56.4,55.3,29.93,North,11,0.0,0.0,96,0.00,,,0.00,0.00,VWS V14.01,2013-09-23 05:01:00,
2013-09-23 01:06:00,56.4,55.0,29.93,North,11,0.0,0.0,95,0.00,,,0.00,0.00,VWS V14.01,2013-09-23 05:06:00,
2013-09-23 01:11:00,56.3,54.9,29.93,North,11,0.0,0.0,95,0.00,,,0.00,0.00,VWS V14.01,2013-09-23 05:11:00,
2013-09-23 01:16:00,56.2,54.8,29.93,North,11,0.0,0.0,95,0.00,,,0.00,0.00,VWS V14.01,2013-09-23 05:16:00,
2013-09-23 01:21:00,56.1,55.0,29.93,North,11,0.0,0.0,96,0.00,,,0.00,0.00,VWS V14.01,2013-09-23 05:21:00,
2013-09-23 01:26:00,56.0,54.9,29.93,North,11,0.0,0.0,96,0.00,,,0.00,0.00,VWS V14.01,2013-09-23 05:26:00,
2013-09-23 01:31:00,56.0,54.9,29.93,North,11,0.0,0.0,96,0.00,,,0.00,0.00,VWS V14.01,2013-09-23 05:31:00,
2013-09-23 01:36:00,55.8,54.4,29.93,North,11,0.0,0.0,95,0.00,,,0.00,0.00,VWS V14.01,2013-09-23 05:36:00,
2013-09-23 01:41:00,55.7,54.3,29.94,North,11,0.0,0.0,95,0.00,,,0.00,0.00,VWS V14.01,2013-09-23 05:41:00,
2013-09-23 01:46:00,55.7,54.6,29.94,North,11,0.0,0.0,96,0.00,,,0.00,0.00,VWS V14.01,2013-09-23 05:46:00,
2013-09-23 01:51:00,55.5,54.4,29.94,North,11,0.0,0.0,96,0.00,,,0.00,0.00,VWS V14.01,2013-09-23 05:51:00,
2013-09-23 01:56:00,55.5,54.4,29.94,North,11,0.0,0.0,96,0.00,,,0.00,0.00,VWS V14.01,2013-09-23 05:56:00,
2013-09-23 02:01:00,55.3,54.2,29.94,North,11,0.0,0.0,96,0.00,,,0.00,0.00,VWS V14.01,2013-09-23 06:01:00,
2013-09-23 02:06:00,55.2,54.1,29.94,North,11,0.0,0.0,96,0.00,,,0.00,0.00,VWS V14.01,2013-09-23 06:06:00,
2013-09-23 02:11:00,55.1,54.0,29.94,North,11,0.0,0.0,96,0.00,,,0.00,0.00,VWS V14.01,2013-09-23 06:11:00,
2013-09-23 02:16:00,55.0,53.9,29.94,North,11,0.0,0.0,96,0.00,,,0.00,0.00,VWS V14.01,2013-09-23 06:16:00,
2013-09-23 02:21:00,55.0,53.9,29.94,North,11,0.0,0.0,96,0.00,,,0.00,0.00,VWS V14.01,2013-09-23 06:21:00,
2013-09-23 02:26:00,54.9,53.8,29.95,North,11,0.0,0.0,96,0.00,,,0.00,0.00,VWS V14.01,2013-09-23 06:26:00,
2013-09-23 02:31:00,54.8,53.7,29.94,North,11,0.0,0.0,96,0.00,,,0.00,0.00,VWS V14.01,2013-09-23 06:31:00,
2013-09-23 02:36:00,54.7,53.6,29.95,North,11,0.0,0.0,96,0.00,,,0.00,0.00,VWS V14.01,2013-09-23 06:36:00,
2013-09-23 02:41:00,54.6,53.5,29.95,North,11,0.0,0.0,96,0.00,,,0.00,0.00,VWS V14.01,2013-09-23 06:41:00,
2013-09-23 02:46:00,54.5,53.4,29.95,North,11,0.0,0.0,96,0.00,,,0.00,0.00,VWS V14.01,2013-09-23 06:46:00,
2013-09-23 02:51:00,54.5,53.4,29.95,North,11,0.0,0.0,96,0.00,,,0.00,0.00,VWS V14.01,2013-09-23 06:51:00,
2013-09-23 02:56:00,54.5,53.4,29.95,North,11,0.0,0.0,96,0.00,,,0.00,0.00,VWS V14.01,2013-09-23 06:56:00,
2013-09-23 03:01:00,54.5,53.4,29.95,North,11,0.0,0.0,96,0.00,,,0.00,0.00,VWS V14.01,2013-09-23 07:01:00,
2013-09-23 03:06:00,54.5,53.7,29.95,North,11,0.0,0.0,97,0.00,,,0.00,0.00,VWS V14.01,2013-09-23 07:06:00,
2013-09-23 03:11:00,54.5,53.7,29.95,North,11,0.0,0.0,97,0.00,,,0.00,0.00,VWS V14.01,2013-09-23 07:11:00,
2013-09-23 03:16:00,54.6,53.8,29.95,North,11,0.0,0.0,97,0.00,,,0.00,0.00,VWS V14.01,2013-09-23 07:16:00,
2013-09-23 03:21:00,54.7,53.9,29.95,North,11,0.0,0.0,97,0.00,,,0.00,0.00,VWS V14.01,2013-09-23 07:21:00,
2013-09-23 03:26:00,54.7,53.9,29.95,North,11,0.0,0.0,97,0.00,,,0.00,0.00,VWS V14.01,2013-09-23 07:26:00,
2013-09-23 03:31:00,54.8,54.0,29.95,North,11,0.0,0.0,97,0.00,,,0.00,0.00,VWS V14.01,2013-09-23 07:31:00,
2013-09-23 03:36:00,54.8,54.0,29.95,North,11,0.0,0.0,97,0.00,,,0.00,0.00,VWS V14.01,2013-09-23 07:36:00,
2013-09-23 03:41:00,54.9,54.1,29.95,North,11,0.0,0.0,97,0.00,,,0.00,0.00,VWS V14.01,2013-09-23 07:41:00,
2013-09-23 03:46:00,54.9,54.1,29.95,North,11,0.0,0.0,97,0.00,,,0.00,0.00,VWS V14.01,2013-09-23 07:46:00,
2013-09-23 03:51:00,55.0,54.2,29.95,North,11,0.0,0.0,97,0.00,,,0.00,0.00,VWS V14.01,2013-09-23 07:51:00,
2013-09-23 03:56:00,55.0,54.2,29.95,North,11,0.0,0.0,97,0.00,,,0.00,0.00,VWS V14.01,2013-09-23 07:56:00,
2013-09-23 04:01:00,55.0,54.2,29.96,North,11,0.0,0.0,97,0.00,,,0.00,0.00,VWS V14.01,2013-09-23 08:01:00,
2013-09-23 04:06:00,55.0,54.2,29.96,North,11,0.0,0.0,97,0.00,,,0.00,0.00,VWS V14.01,2013-09-23 08:06:00,
2013-09-23 04:11:00,55.1,54.3,29.96,North,11,0.0,0.0,97,0.00,,,0.00,0.00,VWS V14.01,2013-09-23 08:11:00,
2013-09-23 04:16:00,55.1,54.3,29.96,North,11,0.0,0.0,97,0.00,,,0.00,0.00,VWS V14.01,2013-09-23 08:16:00,
2013-09-23 04:21:00,55.1,54.3,29.96,North,11,0.0,0.0,97,0.00,,,0.00,0.00,VWS V14.01,2013-09-23 08:21:00,
2013-09-23 04:26:00,55.2,54.4,29.96,North,11,0.0,0.0,97,0.00,,,0.00,0.00,VWS V14.01,2013-09-23 08:26:00,
2013-09-23 04:31:00,55.2,54.4,29.96,North,11,0.0,0.0,97,0.00,,,0.00,0.00,VWS V14.01,2013-09-23 08:31:00,
2013-09-23 04:36:00,55.2,54.4,29.97,North,11,0.0,0.0,97,0.00,,,0.00,0.00,VWS V14.01,2013-09-23 08:36:00,
2013-09-23 04:41:00,55.2,54.4,29.96,North,11,0.0,0.0,97,0.00,,,0.00,0.00,VWS V14.01,2013-09-23 08:41:00,
2013-09-23 04:46:00,55.1,54.3,29.97,North,11,0.0,0.0,97,0.00,,,0.00,0.00,VWS V14.01,2013-09-23 08:46:00,
2013-09-23 04:51:00,55.1,54.3,29.97,North,11,0.0,0.0,97,0.00,,,0.00,0.00,VWS V14.01,2013-09-23 08:51:00,
2013-09-23 04:56:00,55.1,54.3,29.97,North,11,0.0,0.0,97,0.00,,,0.00,0.00,VWS V14.01,2013-09-23 08:56:00,
2013-09-23 05:01:00,55.1,54.3,29.97,North,11,0.0,0.0,97,0.00,,,0.00,0.00,VWS V14.01,2013-09-23 09:01:00,
2013-09-23 05:06:00,55.0,54.2,29.97,North,11,0.0,0.0,97,0.00,,,0.00,0.00,VWS V14.01,2013-09-23 09:06:00,
2013-09-23 05:11:00,55.0,54.2,29.98,North,11,0.0,0.0,97,0.00,,,0.00,0.00,VWS V14.01,2013-09-23 09:11:00,
2013-09-23 05:16:00,55.0,54.2,29.98,North,11,0.0,0.0,97,0.00,,,0.00,0.00,VWS V14.01,2013-09-23 09:16:00,
2013-09-23 05:21:00,54.9,54.1,29.98,North,11,0.0,0.0,97,0.00,,,0.00,0.00,VWS V14.01,2013-09-23 09:21:00,
2013-09-23 05:26:00,54.9,54.1,29.98,North,11,0.0,0.0,97,0.00,,,0.00,0.00,VWS V14.01,2013-09-23 09:26:00,
2013-09-23 05:31:00,54.9,54.1,29.98,North,11,0.0,0.0,97,0.00,,,0.00,0.00,VWS V14.01,2013-09-23 09:31:00,
2013-09-23 05:36:00,54.8,54.0,29.98,North,11,0.0,0.0,97,0.00,,,0.00,0.00,VWS V14.01,2013-09-23 09:36:00,
2013-09-23 05:41:00,54.8,54.0,29.99,North,11,0.0,0.0,97,0.00,,,0.00,0.00,VWS V14.01,2013-09-23 09:41:00,
2013-09-23 05:46:00,54.8,54.0,29.99,North,11,0.0,0.0,97,0.00,,,0.00,0.00,VWS V14.01,2013-09-23 09:46:00,
2013-09-23 05:51:00,54.8,54.0,29.99,North,11,0.0,0.0,97,0.00,,,0.00,0.00,VWS V14.01,2013-09-23 09:51:00,
2013-09-23 05:56:00,54.7,53.9,29.99,North,11,0.0,0.0,97,0.00,,,0.00,0.00,VWS V14.01,2013-09-23 09:56:00,
2013-09-23 06:01:00,54.6,53.8,29.99,North,11,0.0,0.0,97,0.00,,,0.00,0.00,VWS V14.01,2013-09-23 10:01:00,
2013-09-23 06:06:00,54.6,53.8,29.99,North,11,0.0,0.0,97,0.00,,,0.00,0.00,VWS V14.01,2013-09-23 10:06:00,
2013-09-23 06:11:00,54.5,53.7,30.00,North,11,0.0,0.0,97,0.00,,,0.00,0.00,VWS V14.01,2013-09-23 10:11:00,
2013-09-23 06:16:00,54.5,53.7,30.00,North,11,0.0,0.0,97,0.00,,,0.00,0.00,VWS V14.01,2013-09-23 10:16:00,
2013-09-23 06:21:00,54.4,53.6,30.00,North,11,0.0,0.0,97,0.00,,,0.00,0.00,VWS V14.01,2013-09-23 10:21:00,
2013-09-23 06:26:00,54.4,53.6,30.00,North,11,0.0,0.0,97,0.00,,,0.00,0.00,VWS V14.01,2013-09-23 10:26:00,
2013-09-23 06:31:00,54.4,53.6,30.01,North,11,0.0,0.0,97,0.00,,,0.00,0.00,VWS V14.01,2013-09-23 10:31:00,
2013-09-23 06:36:00,54.3,53.5,30.01,North,11,0.0,0.0,97,0.00,,,0.00,0.00,VWS V14.01,2013-09-23 10:36:00,
2013-09-23 06:41:00,54.3,53.5,30.01,North,11,0.0,0.0,97,0.00,,,0.00,0.00,VWS V14.01,2013-09-23 10:41:00,
2013-09-23 06:46:00,54.3,53.5,30.01,North,11,0.0,0.0,97,0.00,,,0.00,0.00,VWS V14.01,2013-09-23 10:46:00,
2013-09-23 06:51:00,54.2,53.4,30.01,North,11,0.0,0.0,97,0.00,,,0.00,0.00,VWS V14.01,2013-09-23 10:51:00,
2013-09-23 06:56:00,54.2,53.1,30.02,North,11,0.0,0.0,96,0.00,,,0.00,0.00,VWS V14.01,2013-09-23 10:56:00,
2013-09-23 07:01:00,54.1,53.0,30.02,North,11,0.0,0.0,96,0.00,,,0.00,0.00,VWS V14.01,2013-09-23 11:01:00,
2013-09-23 07:06:00,54.1,53.0,30.01,North,11,0.0,0.0,96,0.00,,,0.00,0.00,VWS V14.01,2013-09-23 11:06:00,
2013-09-23 07:11:00,54.0,52.9,30.02,North,11,0.0,0.0,96,0.00,,,0.00,0.00,VWS V14.01,2013-09-23 11:11:00,
2013-09-23 07:16:00,53.9,52.8,30.02,North,11,0.0,0.0,96,0.00,,,0.00,0.00,VWS V14.01,2013-09-23 11:16:00,
2013-09-23 07:21:00,53.9,52.8,30.02,North,11,0.0,0.0,96,0.00,,,0.00,5.00,VWS V14.01,2013-09-23 11:21:00,
2013-09-23 07:26:00,53.8,52.7,30.02,North,11,0.0,0.0,96,0.00,,,0.00,9.00,VWS V14.01,2013-09-23 11:26:00,
2013-09-23 07:31:00,53.7,52.6,30.02,North,11,0.0,0.0,96,0.00,,,0.00,11.00,VWS V14.01,2013-09-23 11:31:00,
2013-09-23 07:36:00,53.6,52.5,30.03,North,11,0.0,0.0,96,0.00,,,0.00,14.00,VWS V14.01,2013-09-23 11:36:00,
2013-09-23 07:41:00,53.6,52.5,30.03,North,11,0.0,0.0,96,0.00,,,0.00,16.00,VWS V14.01,2013-09-23 11:41:00,
2013-09-23 07:46:00,53.6,52.5,30.03,North,11,0.0,0.0,96,0.00,,,0.00,16.00,VWS V14.01,2013-09-23 11:46:00,
2013-09-23 07:51:00,53.5,52.4,30.03,North,11,0.0,0.0,96,0.00,,,0.00,12.00,VWS V14.01,2013-09-23 11:51:00,
2013-09-23 07:56:00,53.5,52.4,30.04,North,11,0.0,0.0,96,0.00,,,0.00,12.00,VWS V14.01,2013-09-23 11:56:00,
2013-09-23 08:01:00,53.5,52.4,30.04,North,11,0.0,0.0,96,0.00,,,0.00,14.00,VWS V14.01,2013-09-23 12:01:00,
2013-09-23 08:06:00,53.4,52.3,30.04,North,11,0.0,0.0,96,0.00,,,0.00,16.00,VWS V14.01,2013-09-23 12:06:00,
2013-09-23 08:11:00,53.3,52.2,30.04,North,11,0.0,0.0,96,0.00,,,0.00,19.00,VWS V14.01,2013-09-23 12:11:00,
2013-09-23 08:16:00,53.3,52.2,30.04,North,11,0.0,0.0,96,0.00,,,0.00,21.00,VWS V14.01,2013-09-23 12:16:00,
2013-09-23 08:21:00,53.3,52.2,30.04,North,11,0.0,0.0,96,0.00,,,0.00,21.00,VWS V14.01,2013-09-23 12:21:00,
2013-09-23 08:26:00,53.3,52.2,30.04,North,11,0.0,0.0,96,0.00,,,0.00,23.00,VWS V14.01,2013-09-23 12:26:00,
2013-09-23 08:31:00,53.4,52.3,30.04,North,11,0.0,0.0,96,0.00,,,0.00,60.00,VWS V14.01,2013-09-23 12:31:00,
2013-09-23 08:36:00,53.6,52.8,30.05,SW,214,0.0,3.0,97,0.00,,,0.00,81.00,VWS V14.01,2013-09-23 12:36:00,
2013-09-23 08:41:00,53.8,53.0,30.05,SW,214,0.0,0.0,97,0.00,,,0.00,79.00,VWS V14.01,2013-09-23 12:41:00,
2013-09-23 08:46:00,54.0,52.9,30.05,SW,232,0.0,0.0,96,0.00,,,0.00,139.00,VWS V14.01,2013-09-23 12:46:00,
2013-09-23 08:51:00,54.3,53.2,30.05,SW,224,0.0,3.0,96,0.00,,,0.00,47.00,VWS V14.01,2013-09-23 12:51:00,
2013-09-23 08:56:00,54.7,53.0,30.05,SSW,193,0.0,0.0,94,0.00,,,0.00,30.00,VWS V14.01,2013-09-23 12:56:00,
2013-09-23 09:01:00,55.1,53.1,30.05,NNW,340,0.0,0.0,93,0.00,,,0.00,155.00,VWS V14.01,2013-09-23 13:01:00,
2013-09-23 09:06:00,55.4,53.1,30.06,WNW,303,0.0,1.0,92,0.00,,,0.00,46.00,VWS V14.01,2013-09-23 13:06:00,
2013-09-23 09:11:00,56.0,52.8,30.06,WSW,237,3.0,4.0,89,0.00,,,0.00,35.00,VWS V14.01,2013-09-23 13:11:00,
2013-09-23 09:16:00,56.2,52.7,30.06,WSW,239,0.0,1.0,88,0.00,,,0.00,42.00,VWS V14.01,2013-09-23 13:16:00,
2013-09-23 09:21:00,56.7,52.6,30.06,WNW,284,2.0,2.0,86,0.00,,,0.00,53.00,VWS V14.01,2013-09-23 13:21:00,
2013-09-23 09:26:00,57.1,52.6,30.06,NNE,31,0.0,0.0,85,0.00,,,0.00,81.00,VWS V14.01,2013-09-23 13:26:00,
2013-09-23 09:31:00,57.6,53.1,30.07,North,355,0.0,0.0,85,0.00,,,0.00,107.00,VWS V14.01,2013-09-23 13:31:00,
2013-09-23 09:36:00,58.0,53.5,30.07,North,355,0.0,1.0,85,0.00,,,0.00,135.00,VWS V14.01,2013-09-23 13:36:00,
2013-09-23 09:41:00,58.4,53.3,30.07,WSW,244,0.0,0.0,83,0.00,,,0.00,162.00,VWS V14.01,2013-09-23 13:41:00,
2013-09-23 09:46:00,58.8,53.3,30.07,NE,41,0.0,3.0,82,0.00,,,0.00,163.00,VWS V14.01,2013-09-23 13:46:00,
2013-09-23 09:51:00,59.3,53.1,30.07,NE,45,0.0,0.0,80,0.00,,,0.00,134.00,VWS V14.01,2013-09-23 13:51:00,
2013-09-23 09:56:00,59.5,53.3,30.07,NE,45,0.0,0.0,80,0.00,,,0.00,116.00,VWS V14.01,2013-09-23 13:56:00,
2013-09-23 10:01:00,59.8,52.6,30.07,NE,50,3.0,3.0,77,0.00,,,0.00,83.00,VWS V14.01,2013-09-23 14:01:00,
2013-09-23 10:06:00,60.0,53.1,30.07,ENE,67,1.0,1.0,78,0.00,,,0.00,79.00,VWS V14.01,2013-09-23 14:06:00,
2013-09-23 10:11:00,60.2,52.3,30.07,NNE,22,0.0,1.0,75,0.00,,,0.00,104.00,VWS V14.01,2013-09-23 14:11:00,
2013-09-23 10:16:00,60.5,52.2,30.07,NNW,327,2.0,3.0,74,0.00,,,0.00,118.00,VWS V14.01,2013-09-23 14:16:00,
2013-09-23 10:21:00,60.8,52.1,30.07,West,261,0.0,0.0,73,0.00,,,0.00,185.00,VWS V14.01,2013-09-23 14:21:00,
2013-09-23 10:26:00,61.0,52.7,30.07,West,259,0.0,1.0,74,0.00,,,0.00,230.00,VWS V14.01,2013-09-23 14:26:00,
2013-09-23 10:31:00,61.4,52.7,30.07,West,259,0.0,0.0,73,0.00,,,0.00,248.00,VWS V14.01,2013-09-23 14:31:00,
2013-09-23 10:36:00,61.8,53.1,30.07,West,259,0.0,0.0,73,0.00,,,0.00,316.00,VWS V14.01,2013-09-23 14:36:00,
2013-09-23 10:41:00,62.3,53.2,30.07,NW,317,1.0,1.0,72,0.00,,,0.00,346.00,VWS V14.01,2013-09-23 14:41:00,
2013-09-23 10:46:00,62.9,53.0,30.07,SSE,164,0.0,0.0,70,0.00,,,0.00,427.00,VWS V14.01,2013-09-23 14:46:00,
2013-09-23 10:51:00,63.5,53.5,30.07,SSE,164,0.0,0.0,70,0.00,,,0.00,320.00,VWS V14.01,2013-09-23 14:51:00,
2013-09-23 10:56:00,64.0,53.2,30.07,South,182,0.0,0.0,68,0.00,,,0.00,468.00,VWS V14.01,2013-09-23 14:56:00,
2013-09-23 11:01:00,64.4,52.4,30.07,South,189,2.0,3.0,65,0.00,,,0.00,459.00,VWS V14.01,2013-09-23 15:01:00,
2013-09-23 11:06:00,64.8,53.6,30.07,ESE,119,0.0,0.0,67,0.00,,,0.00,446.00,VWS V14.01,2013-09-23 15:06:00,
2013-09-23 11:11:00,65.4,52.9,30.07,ESE,121,1.0,2.0,64,0.00,,,0.00,512.00,VWS V14.01,2013-09-23 15:11:00,
2013-09-23 11:16:00,66.0,53.5,30.07,SE,139,1.0,2.0,64,0.00,,,0.00,432.00,VWS V14.01,2013-09-23 15:16:00,
2013-09-23 11:21:00,66.3,52.5,30.07,North,349,1.0,1.0,61,0.00,,,0.00,431.00,VWS V14.01,2013-09-23 15:21:00,
2013-09-23 11:26:00,66.3,52.0,30.07,NW,325,0.0,0.0,60,0.00,,,0.00,341.00,VWS V14.01,2013-09-23 15:26:00,
2013-09-23 11:31:00,66.3,52.5,30.07,NE,46,0.0,0.0,61,0.00,,,0.00,353.00,VWS V14.01,2013-09-23 15:31:00,
2013-09-23 11:36:00,66.5,52.7,30.08,NE,46,0.0,0.0,61,0.00,,,0.00,322.00,VWS V14.01,2013-09-23 15:36:00,
2013-09-23 11:40:00,66.4,52.1,30.07,NE,38,0.0,2.0,60,0.00,,,0.00,353.00,VWS V14.01,2013-09-23 15:40:00,
2013-09-23 11:41:00,66.4,52.1,30.07,NE,45,0.0,1.0,60,0.00,,,0.00,357.00,VWS V14.01,2013-09-23 15:41:00,
2013-09-23 11:42:00,66.4,52.6,30.07,NE,38,0.0,0.0,61,0.00,,,0.00,369.00,VWS V14.01,2013-09-23 15:42:00,
2013-09-23 11:43:00,66.4,52.1,30.07,NE,45,0.0,1.0,60,0.00,,,0.00,357.00,VWS V14.01,2013-09-23 15:43:00,
2013-09-23 11:44:00,66.5,53.1,30.07,NW,312,0.0,1.0,62,0.00,,,0.00,381.00,VWS V14.01,2013-09-23 15:44:00,
2013-09-23 11:45:00,66.5,52.7,30.07,NW,312,1.0,1.0,61,0.00,,,0.00,388.00,VWS V14.01,2013-09-23 15:45:00,
2013-09-23 11:46:00,66.5,53.1,30.07,West,280,3.0,3.0,62,0.00,,,0.00,406.00,VWS V14.01,2013-09-23 15:46:00,
2013-09-23 11:47:00,66.6,53.2,30.07,West,280,2.0,3.0,62,0.00,,,0.00,422.00,VWS V14.01,2013-09-23 15:47:00,
2013-09-23 11:48:00,66.5,53.1,30.07,West,270,1.0,2.0,62,0.00,,,0.00,408.00,VWS V14.01,2013-09-23 15:48:00,
2013-09-23 11:49:00,66.5,52.7,30.07,SW,225,3.0,5.0,61,0.00,,,0.00,408.00,VWS V14.01,2013-09-23 15:49:00,
2013-09-23 11:50:00,66.5,52.2,30.07,SW,225,2.0,3.0,60,0.00,,,0.00,462.00,VWS V14.01,2013-09-23 15:50:00,
2013-09-23 11:51:00,66.5,52.2,30.07,SW,225,1.0,2.0,60,0.00,,,0.00,543.00,VWS V14.01,2013-09-23 15:51:00,
2013-09-23 11:52:00,66.5,52.2,30.07,SW,225,0.0,2.0,60,0.00,,,0.00,489.00,VWS V14.01,2013-09-23 15:52:00,
2013-09-23 11:53:00,66.5,52.7,30.07,SW,225,0.0,1.0,61,0.00,,,0.00,462.00,VWS V14.01,2013-09-23 15:53:00,
2013-09-23 11:54:00,66.5,53.1,30.07,SW,225,0.0,0.0,62,0.00,,,0.00,461.00,VWS V14.01,2013-09-23 15:54:00,
2013-09-23 11:55:00,66.6,53.2,30.07,NE,36,3.0,4.0,62,0.00,,,0.00,457.00,VWS V14.01,2013-09-23 15:55:00,
2013-09-23 11:56:00,66.6,52.8,30.07,NE,34,1.0,3.0,61,0.00,,,0.00,459.00,VWS V14.01,2013-09-23 15:56:00,
2013-09-23 11:57:00,66.5,52.7,30.07,NE,35,0.0,1.0,61,0.00,,,0.00,469.00,VWS V14.01,2013-09-23 15:57:00,
2013-09-23 11:58:00,66.6,52.3,30.07,NE,35,0.0,1.0,60,0.00,,,0.00,448.00,VWS V14.01,2013-09-23 15:58:00,
2013-09-23 11:59:00,66.6,53.2,30.07,NNW,340,1.0,1.0,62,0.00,,,0.00,413.00,VWS V14.01,2013-09-23 15:59:00,
2013-09-23 12:00:00,66.7,53.3,30.07,WSW,254,2.0,3.0,62,0.00,,,0.00,457.00,VWS V14.01,2013-09-23 16:00:00,
2013-09-23 12:01:00,66.7,52.8,30.07,WSW,250,2.0,4.0,61,0.00,,,0.00,415.00,VWS V14.01,2013-09-23 16:01:00,
2013-09-23 12:02:00,66.7,52.4,30.07,WSW,251,2.0,3.0,60,0.00,,,0.00,406.00,VWS V14.01,2013-09-23 16:02:00,
2013-09-23 12:03:00,66.7,52.4,30.07,SW,236,3.0,4.0,60,0.00,,,0.00,406.00,VWS V14.01,2013-09-23 16:03:00,
2013-09-23 12:04:00,66.7,52.4,30.07,WSW,244,1.0,4.0,60,0.00,,,0.00,427.00,VWS V14.01,2013-09-23 16:04:00,
2013-09-23 12:05:00,66.7,52.8,30.07,WSW,244,1.0,2.0,61,0.00,,,0.00,422.00,VWS V14.01,2013-09-23 16:05:00,
2013-09-23 12:06:00,66.7,52.8,30.07,WSW,244,0.0,0.0,61,0.00,,,0.00,438.00,VWS V14.01,2013-09-23 16:06:00,
2013-09-23 12:07:00,66.7,52.8,30.07,West,274,2.0,2.0,61,0.00,,,0.00,403.00,VWS V14.01,2013-09-23 16:07:00,
2013-09-23 12:08:00,66.8,52.9,30.07,West,274,1.0,2.0,61,0.00,,,0.00,403.00,VWS V14.01,2013-09-23 16:08:00,
2013-09-23 12:09:00,66.8,52.5,30.07,North,350,2.0,3.0,60,0.00,,,0.00,387.00,VWS V14.01,2013-09-23 16:09:00,
2013-09-23 12:10:00,66.8,52.9,30.07,North,350,2.0,3.0,61,0.00,,,0.00,383.00,VWS V14.01,2013-09-23 16:10:00,
2013-09-23 12:11:00,66.7,52.4,30.07,North,350,1.0,3.0,60,0.00,,,0.00,383.00,VWS V14.01,2013-09-23 16:11:00,
2013-09-23 12:12:00,66.7,52.4,30.07,North,350,1.0,2.0,60,0.00,,,0.00,380.00,VWS V14.01,2013-09-23 16:12:00,
2013-09-23 12:13:00,66.7,52.4,30.07,North,350,1.0,2.0,60,0.00,,,0.00,380.00,VWS V14.01,2013-09-23 16:13:00,
2013-09-23 12:14:00,66.6,52.3,30.07,North,350,1.0,2.0,60,0.00,,,0.00,385.00,VWS V14.01,2013-09-23 16:14:00,
2013-09-23 12:15:00,66.6,52.3,30.07,NNW,333,1.0,2.0,60,0.00,,,0.00,390.00,VWS V14.01,2013-09-23 16:15:00,
2013-09-23 12:16:00,66.6,52.3,30.07,West,277,3.0,3.0,60,0.00,,,0.00,399.00,VWS V14.01,2013-09-23 16:16:00,
2013-09-23 12:17:00,66.6,52.8,30.07,West,277,0.0,3.0,61,0.00,,,0.00,411.00,VWS V14.01,2013-09-23 16:17:00,
2013-09-23 12:18:00,66.6,52.8,30.07,West,277,0.0,1.0,61,0.00,,,0.00,431.00,VWS V14.01,2013-09-23 16:18:00,
2013-09-23 12:19:00,66.7,53.3,30.07,West,277,0.0,0.0,62,0.00,,,0.00,436.00,VWS V14.01,2013-09-23 16:19:00,
2013-09-23 12:20:00,66.8,52.9,30.06,NNW,344,1.0,2.0,61,0.00,,,0.00,432.00,VWS V14.01,2013-09-23 16:20:00,
2013-09-23 12:21:00,66.8,52.5,30.06,NNW,336,0.0,1.0,60,0.00,,,0.00,450.00,VWS V14.01,2013-09-23 16:21:00,
2013-09-23 12:22:00,66.8,52.5,30.06,NNW,336,0.0,2.0,60,0.00,,,0.00,466.00,VWS V14.01,2013-09-23 16:22:00,
2013-09-23 12:23:00,66.8,52.5,30.06,NNW,336,0.0,0.0,60,0.00,,,0.00,439.00,VWS V14.01,2013-09-23 16:23:00,
2013-09-23 12:24:00,67.0,53.1,30.06,NNW,336,0.0,1.0,61,0.00,,,0.00,450.00,VWS V14.01,2013-09-23 16:24:00,
2013-09-23 12:25:00,67.1,53.2,30.06,NNW,336,0.0,0.0,61,0.00,,,0.00,503.00,VWS V14.01,2013-09-23 16:25:00,
2013-09-23 12:26:00,67.3,53.8,30.06,NNW,336,0.0,0.0,62,0.00,,,0.00,473.00,VWS V14.01,2013-09-23 16:26:00,
2013-09-23 12:27:00,67.5,54.0,30.06,NNW,336,0.0,1.0,62,0.00,,,0.00,457.00,VWS V14.01,2013-09-23 16:27:00,
2013-09-23 12:28:00,67.6,54.1,30.06,NNW,336,1.0,1.0,62,0.00,,,0.00,475.00,VWS V14.01,2013-09-23 16:28:00,
2013-09-23 12:29:00,67.7,53.3,30.06,NNW,336,0.0,2.0,60,0.00,,,0.00,475.00,VWS V14.01,2013-09-23 16:29:00,
2013-09-23 12:30:00,67.8,53.4,30.06,NNW,336,0.0,1.0,60,0.00,,,0.00,541.00,VWS V14.01,2013-09-23 16:30:00,
2013-09-23 12:31:00,67.9,53.5,30.06,NNW,336,0.0,0.0,60,0.00,,,0.00,485.00,VWS V14.01,2013-09-23 16:31:00,
2013-09-23 12:32:00,68.0,54.1,30.06,NNW,336,0.0,1.0,61,0.00,,,0.00,473.00,VWS V14.01,2013-09-23 16:32:00,
2013-09-23 12:33:00,68.2,54.7,30.06,NNW,336,0.0,0.0,62,0.00,,,0.00,473.00,VWS V14.01,2013-09-23 16:33:00,
2013-09-23 12:34:00,68.4,54.0,30.06,NNW,336,1.0,2.0,60,0.00,,,0.00,473.00,VWS V14.01,2013-09-23 16:34:00,
2013-09-23 12:35:00,68.5,54.1,30.06,North,9,3.0,4.0,60,0.00,,,0.00,459.00,VWS V14.01,2013-09-23 16:35:00,
2013-09-23 12:36:00,68.5,53.2,30.06,North,9,1.0,3.0,58,0.00,,,0.00,547.00,VWS V14.01,2013-09-23 16:36:00,
2013-09-23 12:37:00,68.5,53.2,30.06,NNW,346,1.0,2.0,58,0.00,,,0.00,508.00,VWS V14.01,2013-09-23 16:37:00,
2013-09-23 12:38:00,68.5,53.2,30.06,NNW,346,0.0,1.0,58,0.00,,,0.00,508.00,VWS V14.01,2013-09-23 16:38:00,
2013-09-23 12:43:00,68.5,53.6,30.06,NE,47,0.0,1.0,59,0.00,,,0.00,494.00,VWS V14.01,2013-09-23 16:43:00,
2013-09-23 12:48:00,69.1,54.7,30.06,NE,47,0.0,0.0,60,0.00,,,0.00,485.00,VWS V14.01,2013-09-23 16:48:00,
2013-09-23 12:53:00,69.5,53.1,30.05,SW,221,1.0,3.0,56,0.00,,,0.00,454.00,VWS V14.01,2013-09-23 16:53:00,
2013-09-23 12:58:00,69.5,53.1,30.05,WSW,252,0.0,2.0,56,0.00,,,0.00,640.00,VWS V14.01,2013-09-23 16:58:00,
2013-09-23 13:03:00,69.5,53.1,30.06,WSW,247,0.0,1.0,56,0.00,,,0.00,462.00,VWS V14.01,2013-09-23 17:03:00,
2013-09-23 13:08:00,69.5,53.1,30.06,SSW,196,1.0,2.0,56,0.00,,,0.00,459.00,VWS V14.01,2013-09-23 17:08:00,
2013-09-23 13:13:00,69.5,53.1,30.06,SSW,196,1.0,1.0,56,0.00,,,0.00,475.00,VWS V14.01,2013-09-23 17:13:00,
2013-09-23 13:18:00,69.5,53.1,30.05,SSW,196,0.0,1.0,56,0.00,,,0.00,468.00,VWS V14.01,2013-09-23 17:18:00,
2013-09-23 13:23:00,69.7,54.8,30.05,SW,229,2.0,2.0,59,0.00,,,0.00,464.00,VWS V14.01,2013-09-23 17:23:00,
2013-09-23 13:28:00,69.7,53.8,30.05,SSW,207,2.0,2.0,57,0.00,,,0.00,557.00,VWS V14.01,2013-09-23 17:28:00,
2013-09-23 13:33:00,69.6,53.7,30.05,SSW,200,0.0,1.0,57,0.00,,,0.00,464.00,VWS V14.01,2013-09-23 17:33:00,
2013-09-23 13:38:00,69.9,54.5,30.05,SSW,206,1.0,1.0,58,0.00,,,0.00,592.00,VWS V14.01,2013-09-23 17:38:00,
2013-09-23 13:43:00,70.3,54.8,30.05,SSW,206,0.0,1.0,58,0.00,,,0.00,580.00,VWS V14.01,2013-09-23 17:43:00,
2013-09-23 13:48:00,70.2,55.2,30.05,SSW,205,0.0,1.0,59,0.00,,,0.00,631.00,VWS V14.01,2013-09-23 17:48:00,
2013-09-23 13:53:00,69.5,55.0,30.04,SSW,205,0.0,0.0,60,0.00,,,0.00,668.00,VWS V14.01,2013-09-23 17:53:00,
2013-09-23 13:58:00,70.2,55.7,30.04,West,274,3.0,3.0,60,0.00,,,0.00,888.00,VWS V14.01,2013-09-23 17:58:00,
2013-09-23 14:03:00,70.4,55.9,30.04,West,275,0.0,1.0,60,0.00,,,0.00,714.00,VWS V14.01,2013-09-23 18:03:00,
2013-09-23 14:08:00,70.9,54.4,30.03,WNW,296,0.0,1.0,56,0.00,,,0.00,714.00,VWS V14.01,2013-09-23 18:08:00,
2013-09-23 14:13:00,70.4,54.0,30.04,WSW,241,1.0,1.0,56,0.00,,,0.00,949.00,VWS V14.01,2013-09-23 18:13:00,
2013-09-23 14:18:00,70.8,56.2,30.03,West,280,1.0,3.0,60,0.00,,,0.00,884.00,VWS V14.01,2013-09-23 18:18:00,
2013-09-23 14:23:00,71.1,56.1,30.03,South,181,1.0,1.0,59,0.00,,,0.00,949.00,VWS V14.01,2013-09-23 18:23:00,
2013-09-23 14:28:00,71.4,56.3,30.03,South,190,1.0,1.0,59,0.00,,,0.00,311.00,VWS V14.01,2013-09-23 18:28:00,
2013-09-23 14:33:00,71.1,55.1,30.03,ENE,72,1.0,1.0,57,0.00,,,0.00,241.00,VWS V14.01,2013-09-23 18:33:00,
2013-09-23 14:38:00,70.5,56.4,30.03,South,186,2.0,2.0,61,0.00,,,0.00,267.00,VWS V14.01,2013-09-23 18:38:00,
2013-09-23 14:43:00,70.6,56.1,30.03,NNE,26,1.0,2.0,60,0.00,,,0.00,891.00,VWS V14.01,2013-09-23 18:43:00,
2013-09-23 14:48:00,71.4,56.3,30.03,NE,54,1.0,1.0,59,0.00,,,0.00,833.00,VWS V14.01,2013-09-23 18:48:00,
2013-09-23 14:53:00,70.9,55.4,30.03,WSW,254,3.0,4.0,58,0.00,,,0.00,881.00,VWS V14.01,2013-09-23 18:53:00,
2013-09-23 14:58:00,70.1,55.6,30.03,SSW,193,1.0,3.0,60,0.00,,,0.00,849.00,VWS V14.01,2013-09-23 18:58:00,
2013-09-23 15:03:00,71.0,56.9,30.03,SW,215,0.0,2.0,61,0.00,,,0.00,854.00,VWS V14.01,2013-09-23 19:03:00,
2013-09-23 15:08:00,72.2,57.6,30.02,WSW,255,1.0,2.0,60,0.00,,,0.00,800.00,VWS V14.01,2013-09-23 19:08:00,
2013-09-23 15:13:00,71.8,57.2,30.02,SSE,160,1.0,2.0,60,0.00,,,0.00,772.00,VWS V14.01,2013-09-23 19:13:00,
2013-09-23 15:18:00,71.5,56.9,30.02,WSW,239,0.0,0.0,60,0.00,,,0.00,714.00,VWS V14.01,2013-09-23 19:18:00,
2013-09-23 15:23:00,72.2,56.6,30.02,WNW,294,1.0,2.0,58,0.00,,,0.00,696.00,VWS V14.01,2013-09-23 19:23:00,
2013-09-23 15:28:00,72.3,55.7,30.02,WNW,294,0.0,0.0,56,0.00,,,0.00,682.00,VWS V14.01,2013-09-23 19:28:00,
2013-09-23 15:33:00,72.7,55.6,30.02,North,355,3.0,3.0,55,0.00,,,0.00,666.00,VWS V14.01,2013-09-23 19:33:00,
2013-09-23 15:38:00,72.2,56.6,30.01,NNE,26,0.0,1.0,58,0.00,,,0.00,650.00,VWS V14.01,2013-09-23 19:38:00,
2013-09-23 15:43:00,72.2,55.7,30.01,West,269,0.0,1.0,56,0.00,,,0.00,633.00,VWS V14.01,2013-09-23 19:43:00,
2013-09-23 15:48:00,72.0,56.9,30.01,West,269,0.0,1.0,59,0.00,,,0.00,97.00,VWS V14.01,2013-09-23 19:48:00,
2013-09-23 15:53:00,71.2,54.7,30.01,NNE,21,2.0,2.0,56,0.00,,,0.00,633.00,VWS V14.01,2013-09-23 19:53:00,
2013-09-23 15:58:00,71.7,57.5,30.01,WSW,247,3.0,3.0,61,0.00,,,0.00,606.00,VWS V14.01,2013-09-23 19:58:00,
2013-09-23 16:03:00,71.1,55.6,30.01,WSW,238,0.0,0.0,58,0.00,,,0.00,603.00,VWS V14.01,2013-09-23 20:03:00,
2013-09-23 16:08:00,71.9,56.8,30.01,NE,49,0.0,1.0,59,0.00,,,0.00,580.00,VWS V14.01,2013-09-23 20:08:00,
2013-09-23 16:13:00,72.8,57.7,30.01,NE,49,1.0,1.0,59,0.00,,,0.00,587.00,VWS V14.01,2013-09-23 20:13:00,
2013-09-23 16:18:00,72.3,57.2,30.01,South,182,0.0,0.0,59,0.00,,,0.00,547.00,VWS V14.01,2013-09-23 20:18:00,
2013-09-23 16:23:00,71.5,56.4,30.01,South,190,2.0,2.0,59,0.00,,,0.00,534.00,VWS V14.01,2013-09-23 20:23:00,
2013-09-23 16:28:00,71.7,56.6,30.01,SW,218,1.0,1.0,59,0.00,,,0.00,520.00,VWS V14.01,2013-09-23 20:28:00,
2013-09-23 16:33:00,71.9,56.8,30.01,SW,219,1.0,2.0,59,0.00,,,0.00,506.00,VWS V14.01,2013-09-23 20:33:00,
2013-09-23 16:38:00,71.8,56.7,30.01,SSW,212,0.0,1.0,59,0.00,,,0.00,487.00,VWS V14.01,2013-09-23 20:38:00,
2013-09-23 16:43:00,71.5,60.0,30.01,SSW,212,0.0,1.0,67,0.00,,,0.00,468.00,VWS V14.01,2013-09-23 20:43:00,
2013-09-23 16:48:00,71.4,56.8,30.01,NW,320,0.0,0.0,60,0.00,,,0.00,455.00,VWS V14.01,2013-09-23 20:48:00,
2013-09-23 16:53:00,72.1,57.5,30.01,East,92,1.0,1.0,60,0.00,,,0.00,436.00,VWS V14.01,2013-09-23 20:53:00,
2013-09-23 16:58:00,72.6,56.5,30.01,East,92,1.0,2.0,57,0.00,,,0.00,420.00,VWS V14.01,2013-09-23 20:58:00,
2013-09-23 17:03:00,72.0,58.7,30.01,East,92,0.0,0.0,63,0.00,,,0.00,403.00,VWS V14.01,2013-09-23 21:03:00,
2013-09-23 17:08:00,71.2,59.3,30.01,East,92,1.0,1.0,66,0.00,,,0.00,388.00,VWS V14.01,2013-09-23 21:08:00,
2013-09-23 17:13:00,70.6,57.4,30.01,SW,215,1.0,1.0,63,0.00,,,0.00,373.00,VWS V14.01,2013-09-23 21:13:00,
2013-09-23 17:18:00,70.8,57.2,30.01,SE,126,2.0,2.0,62,0.00,,,0.00,357.00,VWS V14.01,2013-09-23 21:18:00,
2013-09-23 17:23:00,71.5,57.8,30.01,SE,146,0.0,0.0,62,0.00,,,0.00,338.00,VWS V14.01,2013-09-23 21:23:00,
2013-09-23 17:28:00,71.3,59.8,30.01,SE,146,0.0,0.0,67,0.00,,,0.00,322.00,VWS V14.01,2013-09-23 21:28:00,
2013-09-23 17:33:00,70.9,59.0,30.01,SE,146,0.0,0.0,66,0.00,,,0.00,308.00,VWS V14.01,2013-09-23 21:33:00,
2013-09-23 17:38:00,70.8,58.0,30.01,SE,146,0.0,0.0,64,0.00,,,0.00,285.00,VWS V14.01,2013-09-23 21:38:00,
2013-09-23 17:43:00,70.8,59.3,30.01,SE,146,0.0,0.0,67,0.00,,,0.00,255.00,VWS V14.01,2013-09-23 21:43:00,
2013-09-23 17:48:00,70.7,59.6,30.01,SE,146,0.0,0.0,68,0.00,,,0.00,53.00,VWS V14.01,2013-09-23 21:48:00,
2013-09-23 17:53:00,71.1,60.0,30.01,SE,146,0.0,0.0,68,0.00,,,0.00,46.00,VWS V14.01,2013-09-23 21:53:00,
2013-09-23 17:58:00,71.2,60.5,30.01,SE,146,0.0,0.0,69,0.00,,,0.00,46.00,VWS V14.01,2013-09-23 21:58:00,
2013-09-23 18:03:00,71.2,60.1,30.01,SE,146,0.0,0.0,68,0.00,,,0.00,42.00,VWS V14.01,2013-09-23 22:03:00,
2013-09-23 18:08:00,71.0,60.7,30.01,SE,146,0.0,0.0,70,0.00,,,0.00,40.00,VWS V14.01,2013-09-23 22:08:00,
2013-09-23 18:13:00,70.6,60.3,30.01,SE,146,0.0,0.0,70,0.00,,,0.00,39.00,VWS V14.01,2013-09-23 22:13:00,
2013-09-23 18:18:00,70.3,60.5,30.01,SE,146,0.0,0.0,71,0.00,,,0.00,37.00,VWS V14.01,2013-09-23 22:18:00,
2013-09-23 18:23:00,69.9,60.5,30.01,SE,146,0.0,0.0,72,0.00,,,0.00,37.00,VWS V14.01,2013-09-23 22:23:00,
2013-09-23 18:28:00,69.4,60.4,30.01,SE,146,0.0,0.0,73,0.00,,,0.00,32.00,VWS V14.01,2013-09-23 22:28:00,
2013-09-23 18:33:00,69.0,60.4,30.01,SE,146,0.0,0.0,74,0.00,,,0.00,28.00,VWS V14.01,2013-09-23 22:33:00,
2013-09-23 18:38:00,68.8,60.2,30.01,SE,146,0.0,0.0,74,0.00,,,0.00,25.00,VWS V14.01,2013-09-23 22:38:00,
2013-09-23 18:43:00,68.4,60.2,30.01,SE,146,0.0,0.0,75,0.00,,,0.00,21.00,VWS V14.01,2013-09-23 22:43:00,
2013-09-23 18:48:00,67.9,60.1,30.01,SE,146,0.0,0.0,76,0.00,,,0.00,18.00,VWS V14.01,2013-09-23 22:48:00,
2013-09-23 18:53:00,67.6,60.1,30.01,SE,146,0.0,0.0,77,0.00,,,0.00,14.00,VWS V14.01,2013-09-23 22:53:00,
2013-09-23 18:58:00,67.4,60.3,30.01,SE,146,0.0,0.0,78,0.00,,,0.00,11.00,VWS V14.01,2013-09-23 22:58:00,
2013-09-23 19:03:00,67.2,60.1,30.01,SE,146,0.0,0.0,78,0.00,,,0.00,9.00,VWS V14.01,2013-09-23 23:03:00,
2013-09-23 19:08:00,66.8,60.1,30.01,SE,146,0.0,0.0,79,0.00,,,0.00,5.00,VWS V14.01,2013-09-23 23:08:00,
2013-09-23 19:13:00,66.5,60.2,30.01,SE,146,0.0,0.0,80,0.00,,,0.00,5.00,VWS V14.01,2013-09-23 23:13:00,
2013-09-23 19:18:00,65.8,59.8,30.01,SE,146,0.0,0.0,81,0.00,,,0.00,0.00,VWS V14.01,2013-09-23 23:18:00,
2013-09-23 19:22:00,65.4,59.8,30.01,SE,146,0.0,0.0,82,0.00,,,0.00,0.00,VWS V14.01,2013-09-23 23:22:00,
2013-09-23 19:27:00,64.9,59.6,30.01,SE,146,0.0,0.0,83,0.00,,,0.00,0.00,VWS V14.01,2013-09-23 23:27:00,
2013-09-23 19:32:00,64.3,59.4,30.01,SE,146,0.0,0.0,84,0.00,,,0.00,0.00,VWS V14.01,2013-09-23 23:32:00,
2013-09-23 19:37:00,64.0,59.4,30.02,SE,146,0.0,0.0,85,0.00,,,0.00,0.00,VWS V14.01,2013-09-23 23:37:00,
2013-09-23 19:42:00,63.5,58.9,30.02,SE,146,0.0,0.0,85,0.00,,,0.00,0.00,VWS V14.01,2013-09-23 23:42:00,
2013-09-23 19:47:00,63.1,58.8,30.02,SE,146,0.0,0.0,86,0.00,,,0.00,0.00,VWS V14.01,2013-09-23 23:47:00,
2013-09-23 19:53:00,62.7,58.8,30.02,SE,146,0.0,0.0,87,0.00,,,0.00,0.00,VWS V14.01,2013-09-23 23:53:00,
2013-09-23 19:58:00,62.4,58.8,30.02,SE,146,0.0,0.0,88,0.00,,,0.00,0.00,VWS V14.01,2013-09-23 23:58:00,
2013-09-23 20:03:00,62.1,58.5,30.02,SE,146,0.0,0.0,88,0.00,,,0.00,0.00,VWS V14.01,2013-09-24 00:03:00,
2013-09-23 20:08:00,61.8,58.5,30.02,SE,146,0.0,0.0,89,0.00,,,0.00,0.00,VWS V14.01,2013-09-24 00:08:00,
2013-09-23 20:13:00,61.6,58.3,30.02,SE,146,0.0,0.0,89,0.00,,,0.00,0.00,VWS V14.01,2013-09-24 00:13:00,
2013-09-23 20:18:00,61.4,58.1,30.02,SE,146,0.0,0.0,89,0.00,,,0.00,0.00,VWS V14.01,2013-09-24 00:18:00,
2013-09-23 20:23:00,61.3,58.0,30.02,SE,146,0.0,0.0,89,0.00,,,0.00,0.00,VWS V14.01,2013-09-24 00:23:00,
2013-09-23 20:28:00,61.1,57.8,30.02,SE,146,0.0,0.0,89,0.00,,,0.00,0.00,VWS V14.01,2013-09-24 00:28:00,
2013-09-23 20:32:00,60.9,58.0,30.02,SE,146,0.0,0.0,90,0.00,,,0.00,0.00,VWS V14.01,2013-09-24 00:32:00,
2013-09-23 20:37:00,60.7,58.1,30.03,SE,146,0.0,0.0,91,0.00,,,0.00,0.00,VWS V14.01,2013-09-24 00:37:00,
2013-09-23 20:42:00,60.5,57.9,30.03,SE,146,0.0,0.0,91,0.00,,,0.00,0.00,VWS V14.01,2013-09-24 00:42:00,
2013-09-23 20:48:00,60.3,57.7,30.03,SE,146,0.0,0.0,91,0.00,,,0.00,0.00,VWS V14.01,2013-09-24 00:48:00,
2013-09-23 20:53:00,60.2,57.6,30.03,SE,146,0.0,0.0,91,0.00,,,0.00,0.00,VWS V14.01,2013-09-24 00:53:00,
2013-09-23 20:58:00,60.0,57.7,30.03,SE,146,0.0,0.0,92,0.00,,,0.00,0.00,VWS V14.01,2013-09-24 00:58:00,
2013-09-23 21:03:00,59.8,57.5,30.03,SE,146,0.0,0.0,92,0.00,,,0.00,0.00,VWS V14.01,2013-09-24 01:03:00,
2013-09-23 21:08:00,59.7,57.4,30.03,SE,146,0.0,0.0,92,0.00,,,0.00,0.00,VWS V14.01,2013-09-24 01:08:00,
2013-09-23 21:13:00,59.5,57.2,30.03,SE,146,0.0,0.0,92,0.00,,,0.00,0.00,VWS V14.01,2013-09-24 01:13:00,
2013-09-23 21:18:00,59.4,57.1,30.03,SE,146,0.0,0.0,92,0.00,,,0.00,0.00,VWS V14.01,2013-09-24 01:18:00,
2013-09-23 21:23:00,59.3,57.0,30.03,SE,146,0.0,0.0,92,0.00,,,0.00,0.00,VWS V14.01,2013-09-24 01:23:00,
2013-09-23 21:27:00,59.2,56.9,30.03,SE,146,0.0,0.0,92,0.00,,,0.00,0.00,VWS V14.01,2013-09-24 01:27:00,
2013-09-23 21:32:00,59.0,56.7,30.04,SE,146,0.0,0.0,92,0.00,,,0.00,0.00,VWS V14.01,2013-09-24 01:32:00,
2013-09-23 21:37:00,58.9,56.9,30.03,SE,146,0.0,0.0,93,0.00,,,0.00,0.00,VWS V14.01,2013-09-24 01:37:00,
2013-09-23 21:42:00,58.8,56.8,30.04,SE,146,0.0,0.0,93,0.00,,,0.00,0.00,VWS V14.01,2013-09-24 01:42:00,
2013-09-23 21:47:00,58.7,56.7,30.04,SE,146,0.0,0.0,93,0.00,,,0.00,0.00,VWS V14.01,2013-09-24 01:47:00,
2013-09-23 21:52:00,58.6,56.6,30.04,SE,146,0.0,0.0,93,0.00,,,0.00,0.00,VWS V14.01,2013-09-24 01:52:00,
2013-09-23 21:57:00,58.4,56.4,30.04,SE,146,0.0,0.0,93,0.00,,,0.00,0.00,VWS V14.01,2013-09-24 01:57:00,
2013-09-23 22:02:00,58.3,56.3,30.04,SE,146,0.0,0.0,93,0.00,,,0.00,0.00,VWS V14.01,2013-09-24 02:02:00,
2013-09-23 22:07:00,58.2,56.2,30.04,SE,146,0.0,0.0,93,0.00,,,0.00,0.00,VWS V14.01,2013-09-24 02:07:00,
2013-09-23 22:12:00,58.1,56.4,30.05,SE,146,0.0,0.0,94,0.00,,,0.00,0.00,VWS V14.01,2013-09-24 02:12:00,
2013-09-23 22:17:00,58.0,56.3,30.05,SE,146,0.0,0.0,94,0.00,,,0.00,0.00,VWS V14.01,2013-09-24 02:17:00,
2013-09-23 22:22:00,57.9,56.2,30.05,SE,146,0.0,0.0,94,0.00,,,0.00,0.00,VWS V14.01,2013-09-24 02:22:00,
2013-09-23 22:27:00,57.8,55.8,30.05,SE,146,0.0,0.0,93,0.00,,,0.00,0.00,VWS V14.01,2013-09-24 02:27:00,
2013-09-23 22:32:00,57.7,55.7,30.05,SE,146,0.0,0.0,93,0.00,,,0.00,0.00,VWS V14.01,2013-09-24 02:32:00,
2013-09-23 22:37:00,57.6,55.9,30.06,SE,146,0.0,0.0,94,0.00,,,0.00,0.00,VWS V14.01,2013-09-24 02:37:00,
2013-09-23 22:42:00,57.5,55.8,30.06,SE,146,0.0,0.0,94,0.00,,,0.00,0.00,VWS V14.01,2013-09-24 02:42:00,
2013-09-23 22:47:00,57.3,55.6,30.06,SE,146,0.0,0.0,94,0.00,,,0.00,0.00,VWS V14.01,2013-09-24 02:47:00,
2013-09-23 22:52:00,57.3,55.6,30.06,SE,146,0.0,0.0,94,0.00,,,0.00,0.00,VWS V14.01,2013-09-24 02:52:00,
2013-09-23 22:57:00,57.2,55.5,30.06,SE,146,0.0,0.0,94,0.00,,,0.00,0.00,VWS V14.01,2013-09-24 02:57:00,
2013-09-23 23:02:00,57.1,55.4,30.06,SE,146,0.0,0.0,94,0.00,,,0.00,0.00,VWS V14.01,2013-09-24 03:02:00,
2013-09-23 23:07:00,57.0,55.3,30.06,SE,146,0.0,0.0,94,0.00,,,0.00,0.00,VWS V14.01,2013-09-24 03:07:00,
2013-09-23 23:12:00,56.9,55.2,30.06,SE,146,0.0,0.0,94,0.00,,,0.00,0.00,VWS V14.01,2013-09-24 03:12:00,
2013-09-23 23:17:00,56.8,55.1,30.06,SE,146,0.0,0.0,94,0.00,,,0.00,0.00,VWS V14.01,2013-09-24 03:17:00,
2013-09-23 23:22:00,56.7,55.0,30.06,SE,146,0.0,0.0,94,0.00,,,0.00,0.00,VWS V14.01,2013-09-24 03:22:00,
2013-09-23 23:27:00,56.6,55.2,30.06,SE,146,0.0,0.0,95,0.00,,,0.00,0.00,VWS V14.01,2013-09-24 03:27:00,
2013-09-23 23:32:00,56.6,55.2,30.06,SE,146,0.0,0.0,95,0.00,,,0.00,0.00,VWS V14.01,2013-09-24 03:32:00,
2013-09-23 23:37:00,56.5,54.8,30.06,SE,146,0.0,0.0,94,0.00,,,0.00,0.00,VWS V14.01,2013-09-24 03:37:00,
2013-09-23 23:42:00,56.4,54.7,30.07,SE,146,0.0,0.0,94,0.00,,,0.00,0.00,VWS V14.01,2013-09-24 03:42:00,
2013-09-23 23:47:00,56.3,54.6,30.07,SE,146,0.0,0.0,94,0.00,,,0.00,0.00,VWS V14.01,2013-09-24 03:47:00,
2013-09-23 23:52:00,56.2,54.5,30.07,SE,146,0.0,0.0,94,0.00,,,0.00,0.00,VWS V14.01,2013-09-24 03:52:00,
2013-09-23 23:57:00,56.1,54.4,30.07,SE,146,0.0,0.0,94,0.00,,,0.00,0.00,VWS V14.01,2013-09-24 03:57:00,